Location: Sungai Jaoh
(2.9167°N, 113.9167°E)
Time: 06:20:15
(UTC+00:00)

CENTAUR R/B - Pass Details

Date: 30 November 2020
Orbit: 750 x 1438 km, 63.4° (Epoch: 11 January)

Event Time Altitude Azimuth Distance (km) Brightness Sun altitude
Rises 21:09:04 0° 346° (NNW) 4,467 5.6 -16.0°
Reaches altitude 10° 21:12:03 10° 350° (N) 3,522 5.1 -15.3°
Maximum altitude 21:20:42 57° 67° (ENE) 1,636 3.9 -13.3°
Drops below altitude 10° 21:29:00 10° 143° (SE) 3,400 6.3 -11.4°
Sets 21:31:49 0° 147° (SSE) 4,304 6.8 -10.7°
